Tiempo cada hora Abasolo

Hoy, 24 Octubre, Sábado

Tiempo Temperatura Precipitaciones Viento Presión Humedad
00:00 +25°C° 0 mm 1 mps 756 mmHg 94%
01:00 +25°C° 0 mm 1 mps 756 mmHg 94%
02:00 +25°C° 0 mm 1 mps 756 mmHg 94%
03:00 +24°C° 0.5 mm 1 mps 756 mmHg 94%
04:00 +24°C° 0.5 mm 2 mps 756 mmHg 94%
05:00 +24°C° 0.5 mm 2 mps 757 mmHg 94%
06:00 +24°C° 0.2 mm 3 mps 757 mmHg 90%
07:00 +23°C° 0.2 mm 4 mps 758 mmHg 85%
08:00 +23°C° 0.2 mm 5 mps 758 mmHg 81%
09:00 +26°C° 0 mm 4 mps 758 mmHg 74%
10:00 +27°C° 0 mm 4 mps 758 mmHg 67%
11:00 +29°C° 0 mm 3 mps 757 mmHg 60%
12:00 +29°C° 0 mm 4 mps 756 mmHg 58%
13:00 +30°C° 0 mm 4 mps 755 mmHg 56%
14:00 +30°C° 0 mm 4 mps 755 mmHg 55%
15:00 +29°C° 0 mm 4 mps 755 mmHg 59%
16:00 +28°C° 0 mm 3 mps 754 mmHg 63%
17:00 +26°C° 0 mm 2 mps 754 mmHg 67%
18:00 +25°C° 0 mm 2 mps 755 mmHg 72%
19:00 +24°C° 0 mm 2 mps 755 mmHg 77%
20:00 +23°C° 0 mm 2 mps 756 mmHg 83%
21:00 +23°C° 0 mm 2 mps 756 mmHg 85%
22:00 +23°C° 0 mm 2 mps 755 mmHg 88%
23:00 +22°C° 0 mm 1 mps 755 mmHg 91%

Mañana, 25 Octubre, Domingo

Tiempo Temperatura Precipitaciones Viento Presión Humedad
00:00 +22°C° 0 mm 1 mps 755 mmHg 92%
01:00 +22°C° 0 mm 1 mps 754 mmHg 93%
02:00 +22°C° 0 mm 1 mps 754 mmHg 94%
03:00 +22°C° 0 mm 1 mps 754 mmHg 95%
04:00 +22°C° 0 mm 1 mps 754 mmHg 95%
05:00 +21°C° 0 mm 2 mps 754 mmHg 96%
06:00 +24°C° 0 mm 2 mps 754 mmHg 88%
07:00 +26°C° 0 mm 3 mps 754 mmHg 79%
08:00 +28°C° 0 mm 3 mps 754 mmHg 71%
09:00 +30°C° 0 mm 4 mps 754 mmHg 62%
10:00 +33°C° 0 mm 4 mps 753 mmHg 53%
11:00 +36°C° 0 mm 4 mps 753 mmHg 44%
12:00 +36°C° 0 mm 5 mps 752 mmHg 44%
13:00 +36°C° 0 mm 5 mps 751 mmHg 44%
14:00 +38°C° 0 mm 6 mps 751 mmHg 44%
15:00 +34°C° 0 mm 6 mps 751 mmHg 54%
16:00 +32°C° 0 mm 6 mps 751 mmHg 64%
17:00 +29°C° 0 mm 6 mps 751 mmHg 74%
18:00 +28°C° 0 mm 5 mps 751 mmHg 80%
19:00 +27°C° 0 mm 4 mps 752 mmHg 87%
20:00 +25°C° 0 mm 3 mps 752 mmHg 93%
21:00 +25°C° 0 mm 3 mps 752 mmHg 94%
22:00 +25°C° 0 mm 3 mps 752 mmHg 95%
23:00 +25°C° 0 mm 3 mps 753 mmHg 95%

Pasado mañana, 26 Octubre, Lunes

Tiempo Temperatura Precipitaciones Viento Presión Humedad
00:00 +24°C° 0 mm 3 mps 752 mmHg 95%
01:00 +24°C° 0 mm 3 mps 752 mmHg 95%
02:00 +24°C° 0 mm 3 mps 752 mmHg 95%
03:00 +22°C° 0 mm 3 mps 752 mmHg 95%
04:00 +23°C° 0 mm 2 mps 752 mmHg 95%
05:00 +23°C° 0 mm 2 mps 752 mmHg 95%
06:00 +25°C° 0 mm 3 mps 752 mmHg 86%
07:00 +26°C° 0 mm 3 mps 752 mmHg 77%
08:00 +28°C° 0 mm 4 mps 753 mmHg 68%
09:00 +30°C° 0 mm 4 mps 752 mmHg 59%
10:00 +34°C° 0 mm 4 mps 752 mmHg 50%
11:00 +36°C° 0 mm 5 mps 752 mmHg 40%
12:00 +36°C° 0 mm 5 mps 751 mmHg 41%
13:00 +36°C° 0 mm 6 mps 751 mmHg 41%
14:00 +36°C° 0 mm 6 mps 750 mmHg 41%
15:00 +34°C° 0 mm 6 mps 750 mmHg 50%
16:00 +32°C° 0 mm 5 mps 751 mmHg 58%
17:00 +29°C° 0 mm 4 mps 751 mmHg 67%
18:00 +27°C° 0 mm 3 mps 752 mmHg 75%
19:00 +26°C° 0 mm 3 mps 753 mmHg 83%
20:00 +25°C° 0 mm 2 mps 753 mmHg 91%
21:00 +25°C° 0.1 mm 2 mps 754 mmHg 91%
22:00 +25°C° 0.1 mm 2 mps 754 mmHg 91%
23:00 +24°C° 0.1 mm 1 mps 754 mmHg 91%

, 27 Octubre, Martes

Tiempo Temperatura Precipitaciones Viento Presión Humedad
00:00 +23°C° 0.1 mm 2 mps 754 mmHg 87%
01:00 +21°C° 0.1 mm 2 mps 754 mmHg 82%
02:00 +21°C° 0.1 mm 3 mps 754 mmHg 77%
03:00 +20°C° 0 mm 2 mps 754 mmHg 77%
04:00 +20°C° 0 mm 2 mps 754 mmHg 76%
05:00 +21°C° 0 mm 1 mps 754 mmHg 75%
06:00 +21°C° 0 mm 1 mps 755 mmHg 72%
07:00 +21°C° 0 mm 2 mps 755 mmHg 69%
08:00 +21°C° 0 mm 2 mps 756 mmHg 66%
09:00 +24°C° 0 mm 2 mps 755 mmHg 63%
10:00 +25°C° 0 mm 3 mps 755 mmHg 60%
11:00 +27°C° 0 mm 3 mps 755 mmHg 57%
12:00 +27°C° 0 mm 4 mps 754 mmHg 57%
13:00 +27°C° 0 mm 5 mps 753 mmHg 56%
14:00 +27°C° 0 mm 6 mps 752 mmHg 56%
15:00 +25°C° 0 mm 5 mps 753 mmHg 59%
16:00 +22°C° 0 mm 5 mps 753 mmHg 63%
17:00 +20°C° 0 mm 5 mps 753 mmHg 66%
18:00 +20°C° 0 mm 5 mps 754 mmHg 66%
19:00 +19°C° 0 mm 4 mps 755 mmHg 65%
20:00 +18°C° 0 mm 4 mps 756 mmHg 65%
21:00 +18°C° 0.1 mm 4 mps 756 mmHg 67%
22:00 +17°C° 0.1 mm 4 mps 756 mmHg 70%
23:00 +17°C° 0.1 mm 4 mps 756 mmHg 72%

27 Octubre, Martes

Tiempo Temperatura Precipitaciones Viento Presión Humedad
00:00 +23°C° 0.1 mm 2 mps 754 mmHg 87%
01:00 +21°C° 0.1 mm 2 mps 754 mmHg 82%
02:00 +21°C° 0.1 mm 3 mps 754 mmHg 77%
03:00 +20°C° 0 mm 2 mps 754 mmHg 77%
04:00 +20°C° 0 mm 2 mps 754 mmHg 76%
05:00 +21°C° 0 mm 1 mps 754 mmHg 75%
06:00 +21°C° 0 mm 1 mps 755 mmHg 72%
07:00 +21°C° 0 mm 2 mps 755 mmHg 69%
08:00 +21°C° 0 mm 2 mps 756 mmHg 66%
09:00 +24°C° 0 mm 2 mps 755 mmHg 63%
10:00 +25°C° 0 mm 3 mps 755 mmHg 60%
11:00 +27°C° 0 mm 3 mps 755 mmHg 57%
12:00 +27°C° 0 mm 4 mps 754 mmHg 57%
13:00 +27°C° 0 mm 5 mps 753 mmHg 56%
14:00 +27°C° 0 mm 6 mps 752 mmHg 56%
15:00 +25°C° 0 mm 5 mps 753 mmHg 59%
16:00 +22°C° 0 mm 5 mps 753 mmHg 63%
17:00 +20°C° 0 mm 5 mps 753 mmHg 66%
18:00 +20°C° 0 mm 5 mps 754 mmHg 66%
19:00 +19°C° 0 mm 4 mps 755 mmHg 65%
20:00 +18°C° 0 mm 4 mps 756 mmHg 65%
21:00 +18°C° 0.1 mm 4 mps 756 mmHg 67%
22:00 +17°C° 0.1 mm 4 mps 756 mmHg 70%
23:00 +17°C° 0.1 mm 4 mps 756 mmHg 72%

28 Octubre, Miércoles

Tiempo Temperatura Precipitaciones Viento Presión Humedad
00:00 +15°C° 0.1 mm 4 mps 756 mmHg 74%
01:00 +15°C° 0.1 mm 4 mps 756 mmHg 76%
02:00 +14°C° 0.1 mm 4 mps 756 mmHg 77%
03:00 +14°C° 0 mm 4 mps 756 mmHg 77%
04:00 +14°C° 0 mm 5 mps 756 mmHg 76%
05:00 +13°C° 0 mm 5 mps 756 mmHg 75%
06:00 +14°C° 0 mm 5 mps 757 mmHg 73%
07:00 +14°C° 0 mm 5 mps 757 mmHg 71%
08:00 +14°C° 0 mm 5 mps 758 mmHg 69%
09:00 +15°C° 0 mm 5 mps 758 mmHg 66%
10:00 +17°C° 0 mm 4 mps 758 mmHg 64%
11:00 +17°C° 0 mm 4 mps 757 mmHg 61%
12:00 +17°C° 0 mm 5 mps 757 mmHg 59%
13:00 +19°C° 0 mm 5 mps 756 mmHg 57%
14:00 +20°C° 0 mm 6 mps 756 mmHg 55%
15:00 +19°C° 0 mm 6 mps 756 mmHg 54%
16:00 +19°C° 0 mm 5 mps 756 mmHg 54%
17:00 +19°C° 0 mm 5 mps 757 mmHg 54%
18:00 +19°C° 0 mm 5 mps 757 mmHg 54%
19:00 +19°C° 0 mm 4 mps 758 mmHg 53%
20:00 +18°C° 0 mm 4 mps 759 mmHg 53%
21:00 +18°C° 0 mm 3 mps 759 mmHg 54%
22:00 +18°C° 0 mm 3 mps 759 mmHg 55%
23:00 +17°C° 0 mm 3 mps 759 mmHg 56%

29 Octubre, Jueves

Tiempo Temperatura Precipitaciones Viento Presión Humedad
00:00 +16°C° 0 mm 3 mps 759 mmHg 59%
01:00 +16°C° 0 mm 2 mps 759 mmHg 62%
02:00 +15°C° 0 mm 2 mps 758 mmHg 64%
03:00 +15°C° 0 mm 2 mps 759 mmHg 65%
04:00 +15°C° 0 mm 2 mps 759 mmHg 65%
05:00 +15°C° 0 mm 2 mps 759 mmHg 65%
06:00 +16°C° 0 mm 2 mps 759 mmHg 60%
07:00 +18°C° 0 mm 3 mps 760 mmHg 55%
08:00 +19°C° 0 mm 3 mps 760 mmHg 49%
09:00 +21°C° 0 mm 4 mps 760 mmHg 45%
10:00 +23°C° 0 mm 4 mps 760 mmHg 40%
11:00 +25°C° 0 mm 5 mps 760 mmHg 36%
12:00 +26°C° 0 mm 5 mps 759 mmHg 35%
13:00 +26°C° 0 mm 6 mps 758 mmHg 35%
14:00 +26°C° 0 mm 6 mps 758 mmHg 35%
15:00 +25°C° 0 mm 5 mps 758 mmHg 39%
16:00 +22°C° 0 mm 4 mps 759 mmHg 43%
17:00 +20°C° 0 mm 3 mps 759 mmHg 48%
18:00 +19°C° 0 mm 3 mps 760 mmHg 52%
19:00 +17°C° 0 mm 2 mps 760 mmHg 57%
20:00 +16°C° 0 mm 1 mps 761 mmHg 61%
21:00 +16°C° 0 mm 1 mps 761 mmHg 62%
22:00 +15°C° 0 mm 1 mps 762 mmHg 63%
23:00 +15°C° 0 mm 1 mps 762 mmHg 65%
Mostrar más

Necesitamos Su Consentimiento

Meteoprog y nuestros Proveedores de Servicios pueden almacenar y acceder a sus datos personales como cookies, identificadores de dispositivo u otras tecnologías similares de su dispositivo y procesar dichos datos para personalizar contenido y anuncios, además de ofrecer funciones de redes sociales y analizar el tráfico.

  • Almacenar y/o acceder a información en su dispositivo

    Se puede almacenar o acceder a cookies, identificadores de dispositivo u otra información de su dispositivo para los fines anteriormente indicados.

  • Anuncios y contenido personalizados, medición de anuncios y contenido, percepciones del público, y desarrollo de productos

    Los anuncios y el contenido pueden personalizarse en base a su perfil. Se pueden añadir más datos para personalizar mejor los anuncios y contenidos. Se puede medir el rendimiento de los anuncios y contenidos. Se puede obtener la percepción sobre el público que ha visto los anuncios y contenidos. Dichos datos pueden usarse para desarrollar o mejorar la experiencia del usuario, sistemas y software.

Al hacer clic en ‘Estoy De Acuerdo’ usted permitirá el uso de las cookies, identificadores de dispositivo, balizas web u otras tecnologías similares indicadas. Su configuración puede cambiarse desde el navegador de su dispositivo.

Para ciertos fines, los intereses legítimos pueden ser considerados por encima del consentimiento. Puede leer más sobre ello en nuestra Política de Privacidad y Cookies.